Find Kosmos-1603

NORAD ID: 15333 Int'l Des: 1984-106 Owner: TSN108 Country: SU operational
LEOCIRCULAR

Live-Position

3D-Globus wird geladen...

Über Kosmos-1603

Beschreibung wird geladen...

Nächste Überflüge

Passes for default location (London). Set your location on the main map for personalized predictions.

Höhenverlauf

Loading altitude history...

Zweizeiliger Elementsatz

1 15333U 84106A 26107.18474846 -.00000244 00000-0 -10230-3 0 9993
2 15333 71.0263 175.6950 0020798 328.5411 31.4466 14.14509039144110
Epoch: 17. Apr. 2026 • Age: 12 hours

Aktueller Status

Höhe 834.4 km
Geschwindigkeit 7.44 km/s
Subsatellitenpunkt -11.14°S, 81.1°E
Startdatum 28. Sept. 1984
Alter 41.5 years
Typ other

Technische Details

Klassifizierung Payload
Masse 3250.00 kg
Trockenmasse 3250.00 kg
Gesamtmasse 3250.00 kg
Länge 4.50 m
Durchmesser 1.40 m
Spannweite 22.70 m
Form Cyl + 2 Pan + Ant
Hersteller YUZH
Bus-Typ Tselina-2
Phasenstatus In Orbit
Besitzer/Staat TSN108/SU

Most Searched